星链-30422 (STARLINK-30422 )

导读

STARLINK-30422是美国太空探索技术公司Starlink星链互联网卫星星座中的一员,于2023年9月9日发射入轨。星链星座旨在为全球提供高速低延迟宽带互联网服务,该卫星承载着星座组网扩容任务,运行在近地轨道,为全球尤其是偏远地区用户提供网络接入服务,是美国推进近地轨道卫星互联网布局的组成部分。

基本信息
目录编号:
57826
目录名称:
STARLINK-30422
国际标识:
2023-138U
轨道中心:
EARTH
卫星名称:
星链-30422
卫星全名:
星链-30422 (STARLINK-30422 )
卫星状态:
在轨 (已飞行1091 天)
发射日期:
2023-09-09 UTC
国别 :
美国 (US)
星等 :
--
轨道信息
数据来源 国际轨道数据
星历时间: 2026-09-04T12:02:54+0800
7小时前
查看轨道信息
半长轴: 6861.197km
偏心率: 0.0001264
轨道倾角: 43.004°
近地点辐角 273.893°
升交点赤经 306.291°
平近点角 86.178°
近地点: 482.192km
远地点: 483.928km
周期: 94.267分钟
每日圈数: 15.275766
详细信息
固有亮度:
5
最大亮度:
0.3
卫星平台:
Starlink v2.0 mini
覆盖范围:
全球
运营商:
太空探索技术公司
运营商所在国:
美国
制造商(研发单位):
太空探索技术公司
制造商所在国:
美国
使用方式:
暂无
卫星简介
星链(Starlink)计划是由太空探索技术公司(SpaceX)提出的一个巨型低轨卫星互联网星座项目,计划在2019年至2024年间在太空搭建由约1.2万颗卫星组成的“星链”网络,其中1584颗将部署在地球上空550千米处的近地轨道,并从2020年开始工作。该卫星仍在工作。
2D轨道图
3D轨道图
轨道高度分析图
轨道倾角分析图
轨道综合分析图
查看轨道综合分析图
交会数据列表
事件ID 空间交会对象 最接近时刻(TCA) 交会距离 交会风险概率(CRP) 交会风险指数(CRI) 操作
CDM_260905-034805-782606-762121
2026-09-05T
03:48:47+0000
0.895 km
远距离
2.485463E-5 中风险 0.63
CDM_260905-153405-782606-762121
2026-09-05T
15:34:56+0000
1.345 km
极远距离
6.128776E-6 低风险 0.51
CDM_260905-052205-782606-762121
2026-09-05T
05:22:56+0000
1.569 km
极远距离
3.719239E-6 低风险 0.46
CDM_260905-170905-782606-762121
2026-09-05T
17:09:05+0000
2.300 km
极远距离
1.385526E-6 低风险 0.38
CDM_260904-224603-787505-782621
2026-09-04T
22:46:47+0000
2.350 km
极远距离
1.289469E-6 低风险 0.37
CDM_260905-021405-782606-762121
2026-09-05T
02:14:38+0000
2.768 km
极远距离
1.017654E-6 低风险 0.35